This is the latest recevied weather packets stored in our database for station/object KK4PWJ-13. If no packets are shown the sender has not sent any weather packets the latest 10 day(s).
| Time | Temp. | Humidity | Pressure | Rain* | Wind** | Luminosity | Snow |
|---|---|---|---|---|---|---|---|
| 1778149229 | 17.78° C | 99% | 1007.6 hPa | 6.1 mm | - | 0 W/m² | - |
| 1778148925 | 17.78° C | 99% | 1007.8 hPa | 3.05 mm | - | 0 W/m² | - |
| 1778148621 | 17.78° C | 99% | 1008 hPa | 3.05 mm | - | 0 W/m² | - |
| 1778148319 | 17.78° C | 99% | 1007.7 hPa | 3.05 mm | - | 0 W/m² | - |
| 1778148017 | 17.78° C | 99% | 1007.7 hPa | 0 mm | - | 0 W/m² | - |
| 1778147715 | 17.78° C | 99% | 1007.6 hPa | 0 mm | - | 0 W/m² | - |
| 1778147411 | 17.78° C | 99% | 1007.9 hPa | 0 mm | - | 0 W/m² | - |
| 1778146804 | 17.78° C | 99% | 1007.9 hPa | 0 mm | - | 0 W/m² | - |
| 1778146502 | 17.78° C | 99% | 1007.9 hPa | 0 mm | - | 0 W/m² | - |
| 1778146200 | 17.78° C | 99% | 1007.8 hPa | 0 mm | - | 0 W/m² | - |
| 1778145896 | 17.78° C | 99% | 1007.8 hPa | 0 mm | - | 0 W/m² | - |
| 1778145593 | 17.78° C | 99% | 1007.9 hPa | 0 mm | - | 0 W/m² | - |
| 1778145290 | 17.78° C | 99% | 1007.8 hPa | 0 mm | - | 0 W/m² | - |
| 1778144986 | 17.78° C | 99% | 1008 hPa | 0 mm | - | 0 W/m² | - |
| 1778144682 | 17.78° C | 99% | 1008 hPa | 0 mm | - | 0 W/m² | - |
| 1778144378 | 17.78° C | 99% | 1007.9 hPa | 0 mm | - | 0 W/m² | - |
| 1778144076 | 17.78° C | 99% | 1007.8 hPa | 0 mm | - | 0 W/m² | - |
| 1778143772 | 17.78° C | 99% | 1008.2 hPa | 1.27 mm | - | 0 W/m² | - |
| 1778143469 | 17.78° C | 99% | 1008.1 hPa | 1.27 mm | - | 0 W/m² | - |
| 1778143166 | 17.78° C | 99% | 1008 hPa | 0 mm | - | 0 W/m² | - |
| 1778142863 | 17.78° C | 99% | 1008.2 hPa | 0 mm | - | 0 W/m² | - |
| 1778142559 | 17.78° C | 99% | 1008.1 hPa | 0 mm | - | 0 W/m² | - |
| 1778142255 | 17.78° C | 99% | 1008 hPa | 1.78 mm | - | 0 W/m² | - |
| 1778141952 | 17.78° C | 99% | 1008.4 hPa | 1.78 mm | - | 0 W/m² | - |
| 1778141648 | 17.78° C | 99% | 1008.7 hPa | 0 mm | - | 0 W/m² | - |
* Rain latest hour (hover to see other rain measurements)
** Current wind speed in m/s (hover to see current wind gust speed)